Вернуться в каталог

STARLINK-37616

АктивенСвязьSSO
NORAD 69040·PAYLOAD·🇺🇸 United States

Запущен May 6, 2026 с Vandenberg Space Force Base

Loading…

Ближайшие Пролёты (ближайшие 24 часа)

TLE

СвежийSource: CelesTrak SupGP

Эпоха: Sep 14, 2026, 20:44 UTC

1 69040C 26101R   26257.86437500  .00022383  00000+0  69513-3 0  2575
2 69040  97.2849 111.3784 0001949  92.7387 201.9590 15.33412844    16

Отслеживайте STARLINK-37616 в реальном времени с AllMySat

Download on the App Store